[[{"header":{"parameterUnit":"m.s-1","parameterCategory":1,"la1":30.2991,"la2":30.254,"lo1":-89.0895,"lo2":-89.0444,"dy":0.0017,"dx":0.0017,"nx":28,"ny":28,"refTime":"2024-09-02T09:00:00:Z","depth":0,"parameterNumber":2,"parameterNumberName":"U-component_of_WINDS"},"data":[0,0,0,0,0,0,0,0,0,0,0,0,0,0,0,0,0,0,0,0,0,0,0,0,0,0,0,0,0,0,0,0,0,0,0,0,0,0,0,0,0,0,0,0,0,0,0,0,0,0,0,0,0,0,0,0,0,0,0.4607,0.4607,0,0.4641,0.4641,0.4642,0.4672,0.4672,0.4673,0.4673,0.4707,0.4707,0.4708,0,0,0,0,0,0,0,0,0,0,0,0,0,0.4569,0.4569,0.4607,0.4608,0.4608,0.4641,0.4641,0.4642,0.4672,0.4672,0.4673,0.4673,0.4707,0.4707,0.4708,0,0,0,0,0,0,0,0,0,0,0,0,0,0.4592,0.457,0.4607,0.4627,0.4629,0.4641,0.4641,0.4642,0.4672,0.4672,0.4673,0.4673,0.4706,0.4707,0.4708,0.4703,0,0,0.4711,0.4711,0,0,0,0,0,0,0,0,0.4591,0.4594,0.4624,0.4626,0.4628,0.4653,0.464,0.4662,0.4672,0.4655,0.4673,0.4673,0.4688,0.4691,0.4696,0.4704,0.4706,0.4711,0.4711,0.4712,0.4712,0,0,0,0,0,0,0,0.4589,0.4592,0.462,0.4624,0.4627,0.4634,0.4638,0.4645,0.4668,0.4657,0.4659,0.4663,0.469,0.4695,0.4697,0.4706,0.4711,0.4711,0.4712,0.4712,0.4713,0.4712,0,0,0,0,0,0,0.4585,0.4591,0.4619,0.4621,0.461,0.4634,0.4639,0.4644,0.4668,0.4673,0.4662,0.4664,0.4693,0.4696,0.4698,0.4694,0.4712,0.4712,0.4713,0.4713,0.4713,0.4712,0,0,0,0,0,0,0.4584,0.4587,0.4618,0.4607,0.4611,0.4635,0.464,0.4645,0.465,0.4673,0.4677,0.4663,0.4694,0.4697,0.4702,0.4695,0.4713,0.4714,0.4714,0.4713,0.4712,0.4684,0,0,0,0,0,0,0.4582,0.4586,0.4584,0.4607,0.4612,0.462,0.464,0.4645,0.4651,0.4654,0.4675,0.4679,0.4694,0.47,0.4702,0.4697,0.4714,0.4714,0.4713,0.4713,0.4686,0.4682,0.468,0,0,0,0,0,0.4581,0.4575,0.4584,0.4587,0.461,0.462,0.4623,0.4642,0.4651,0.4649,0.4664,0.4678,0.4696,0.47,0.4703,0.4697,0.4715,0.4714,0.4713,0.4687,0.4683,0.468,0,0,0,0,0,0,0.455,0.4578,0.4589,0.4589,0.4602,0.4625,0.4623,0.4637,0.4647,0.4649,0.4672,0.4676,0.4678,0.4689,0.4693,0.4694,0.4707,0.4707,0.4687,0.4683,0.468,0.4677,0.4715,0,0,0,0,0,0.4544,0.455,0.4574,0.4572,0.4578,0.46,0.4605,0.4618,0.4632,0.4638,0.4653,0.4666,0.4675,0.468,0.4689,0.4688,0.4693,0.4686,0.4683,0.468,0.4679,0.4679,0.4676,0.4708,0.4708,0.4708,0,0,0.453,0.4546,0.4548,0.4566,0.4578,0.4584,0.4604,0.4609,0.4614,0.4638,0.4644,0.4655,0.4672,0.4673,0.4675,0.4682,0.4671,0.4679,0.4676,0.4677,0.4678,0.4675,0.4672,0.4708,0.4708,0.4708,0,0,0.4508,0.452,0.4521,0.4532,0.455,0.4564,0.4564,0.4586,0.4595,0.46,0.4619,0.4626,0.464,0.4651,0.4658,0.4642,0.4655,0.4645,0.4628,0.4629,0.4626,0.4624,0.4618,0.4615,0.4644,0.4643,0.4643,0,0.4488,0.4498,0.4519,0.4523,0.4531,0.4554,0.4555,0.4565,0.4584,0.4589,0.4597,0.4617,0.4629,0.4634,0.463,0.4636,0.4636,0.4641,0.4625,0.4623,0.4621,0.4616,0.4613,0.4642,0.4642,0.4642,0.4642,0,0.4473,0.4479,0.4477,0.4496,0.4504,0.4506,0.4527,0.4533,0.4546,0.456,0.4566,0.4582,0.4595,0.4598,0.4611,0.4605,0.4609,0.4621,0.4634,0.4616,0.4611,0.4609,0.464,0.464,0.4641,0.4641,0,0,0.443,0.4462,0.446,0.447,0.4492,0.4497,0.4501,0.4514,0.4518,0.4532,0.4535,0.4548,0.4559,0.4568,0.4582,0.4583,0.4569,0.4595,0.4595,0.4589,0.4563,0.4553,0.455,0.4578,0.4578,0.4578,0.4562,0,0.4411,0.4418,0.4438,0.444,0.4447,0.447,0.4474,0.4488,0.4501,0.4509,0.4524,0.4533,0.4547,0.4553,0.4554,0.457,0.4564,0.4572,0.4582,0.4582,0.4576,0.4548,0.4537,0.4521,0.456,0.456,0.456,0,0.4388,0.4401,0.4403,0.4426,0.4429,0.4432,0.4446,0.4453,0.447,0.448,0.449,0.4507,0.4513,0.4526,0.4535,0.4539,0.4545,0.4554,0.4554,0.4554,0.4568,0.4547,0.4516,0.4513,0.4557,0.4557,0.4557,0,0.4356,0.4373,0.4377,0.4384,0.4411,0.4412,0.4424,0.4441,0.4448,0.4461,0.4466,0.4479,0.4486,0.4496,0.4516,0.4524,0.4522,0.4538,0.453,0.453,0.4528,0.4527,0.4496,0.4533,0.4533,0.4533,0.4533,0,0.4331,0.4332,0.4363,0.4365,0.4367,0.4391,0.4391,0.4405,0.4421,0.4426,0.4448,0.4453,0.4479,0.4487,0.4503,0.4507,0.4511,0.4519,0.4523,0.4516,0.4515,0.4519,0.452,0.4533,0.4533,0.4533,0.4533,0,0.4295,0.4316,0.4322,0.4347,0.4353,0.4353,0.4375,0.4378,0.4394,0.4401,0.4404,0.4428,0.4439,0.446,0.4477,0.4488,0.4488,0.4496,0.4482,0.4485,0.4476,0.4476,0.4446,0.4443,0.4482,0.4482,0.4481,0,0.4277,0.4278,0.4304,0.4309,0.4319,0.4328,0.4335,0.4359,0.4367,0.4387,0.4388,0.44,0.4411,0.4427,0.4447,0.446,0.4467,0.4456,0.4469,0.4463,0.4466,0.4465,0.4466,0.4452,0.4452,0.4451,0.4451,0,0.4243,0.4254,0.4264,0.4278,0.4287,0.4299,0.4312,0.4315,0.4343,0.435,0.4361,0.437,0.4387,0.4399,0.4416,0.4428,0.4444,0.4447,0.4446,0.4438,0.443,0.4434,0.4473,0.4447,0.4447,0.4448,0.4448,0.4448,0.4214,0.4216,0.4235,0.4246,0.4259,0.4271,0.4276,0.4293,0.4303,0.4319,0.4333,0.4343,0.4361,0.4385,0.4396,0.4404,0.4412,0.4411,0.441,0.4409,0.4406,0.443,0.4408,0.4408,0.4408,0.4408,0.4408,0,0.4181,0.4194,0.4204,0.4223,0.4231,0.4247,0.4263,0.4269,0.4278,0.4294,0.4305,0.4318,0.4331,0.4352,0.4366,0.4369,0.4377,0.4372,0.4371,0.4374,0.4399,0.4398,0.4365,0.4365,0.4365,0.4365,0.4365,0.4365,0.4164,0.4168,0.4182,0.4193,0.4207,0.4217,0.4225,0.4237,0.425,0.4264,0.4275,0.4289,0.4307,0.4323,0.4335,0.4341,0.4345,0.4337,0.4346,0.4368,0.4372,0.4376,0.4375,0.4338,0.4338,0.432,0.432,0.432]},{"header":{"parameterUnit":"m.s-1","parameterCategory":1,"la1":30.2991,"la2":30.254,"lo1":-89.0895,"lo2":-89.0444,"dy":0.0017,"dx":0.0017,"nx":28,"ny":28,"refTime":"2024-09-02T09:00:00:Z","depth":0,"parameterNumber":3,"parameterNumberName":"V-component_of_WINDS"},"data":[0,0,0,0,0,0,0,0,0,0,0,0,0,0,0,0,0,0,0,0,0,0,0,0,0,0,0,0,0,0,0,0,0,0,0,0,0,0,0,0,0,0,0,0,0,0,0,0,0,0,0,0,0,0,0,0,0,0,-1.446,-1.446,0,-1.4548,-1.4549,-1.455,-1.4573,-1.4573,-1.4572,-1.4572,-1.466,-1.4663,-1.4665,0,0,0,0,0,0,0,0,0,0,0,0,0,-1.4308,-1.4311,-1.4459,-1.4461,-1.4462,-1.4548,-1.4549,-1.455,-1.4573,-1.4573,-1.4572,-1.4571,-1.4659,-1.4662,-1.4666,0,0,0,0,0,0,0,0,0,0,0,0,0,-1.4383,-1.4312,-1.4459,-1.4484,-1.4487,-1.4548,-1.4549,-1.4551,-1.4574,-1.4573,-1.4572,-1.4571,-1.4658,-1.4662,-1.4666,-1.4708,0,0,-1.4679,-1.4681,0,0,0,0,0,0,0,0,-1.4379,-1.4389,-1.4479,-1.4482,-1.4486,-1.4549,-1.4528,-1.4603,-1.4574,-1.454,-1.4572,-1.4571,-1.4623,-1.463,-1.4649,-1.4712,-1.4716,-1.468,-1.4682,-1.4684,-1.4685,0,0,0,0,0,0,0,-1.4374,-1.4385,-1.4494,-1.448,-1.4484,-1.4489,-1.4499,-1.4542,-1.4585,-1.4543,-1.4545,-1.4556,-1.4625,-1.4645,-1.4651,-1.4717,-1.4679,-1.4683,-1.4686,-1.4688,-1.482,-1.4821,0,0,0,0,0,0,-1.4364,-1.438,-1.4492,-1.4497,-1.4429,-1.4493,-1.4504,-1.4529,-1.4585,-1.4593,-1.4556,-1.4556,-1.4638,-1.4646,-1.4654,-1.4707,-1.4684,-1.4688,-1.469,-1.4819,-1.482,-1.4821,0,0,0,0,0,0,-1.4361,-1.4374,-1.4488,-1.4439,-1.4454,-1.4496,-1.4525,-1.4531,-1.4551,-1.4595,-1.4602,-1.4568,-1.4637,-1.4648,-1.4695,-1.471,-1.469,-1.4694,-1.4818,-1.4819,-1.4821,-1.4813,0,0,0,0,0,0,-1.4357,-1.4373,-1.439,-1.444,-1.4457,-1.4528,-1.4526,-1.4534,-1.4559,-1.456,-1.4608,-1.4615,-1.4638,-1.4688,-1.4699,-1.4716,-1.4697,-1.4817,-1.4819,-1.482,-1.4812,-1.4814,-1.4815,0,0,0,0,0,-1.4351,-1.4383,-1.439,-1.4404,-1.4479,-1.4529,-1.4538,-1.4564,-1.456,-1.4577,-1.4605,-1.4614,-1.4707,-1.4693,-1.4705,-1.4723,-1.4816,-1.4818,-1.482,-1.4811,-1.4813,-1.4815,0,0,0,0,0,0,-1.4333,-1.439,-1.4399,-1.4448,-1.4484,-1.4532,-1.4555,-1.4566,-1.4602,-1.4602,-1.4632,-1.4642,-1.4687,-1.471,-1.4693,-1.4767,-1.4761,-1.4766,-1.475,-1.4753,-1.4754,-1.4748,-1.4701,0,0,0,0,0,-1.4335,-1.4372,-1.4419,-1.4458,-1.4476,-1.4512,-1.4535,-1.4552,-1.4589,-1.4604,-1.4635,-1.467,-1.4708,-1.4732,-1.4768,-1.4815,-1.4826,-1.4834,-1.4836,-1.4837,-1.484,-1.4867,-1.487,-1.4828,-1.4828,-1.4828,0,0,-1.4339,-1.4375,-1.4396,-1.4456,-1.4485,-1.4521,-1.4524,-1.4563,-1.459,-1.4609,-1.4655,-1.468,-1.4721,-1.4768,-1.479,-1.4789,-1.4855,-1.484,-1.484,-1.4843,-1.4869,-1.4873,-1.4877,-1.483,-1.483,-1.4829,0,0,-1.4365,-1.4396,-1.4432,-1.4462,-1.4506,-1.453,-1.4539,-1.4587,-1.4604,-1.4651,-1.4666,-1.4698,-1.4762,-1.4791,-1.4814,-1.4851,-1.4861,-1.4862,-1.4871,-1.4897,-1.49,-1.4903,-1.4916,-1.492,-1.4866,-1.4866,-1.4866,0,-1.4364,-1.442,-1.4449,-1.4486,-1.4512,-1.4533,-1.4569,-1.4596,-1.465,-1.4666,-1.4664,-1.4745,-1.4774,-1.4828,-1.4837,-1.4855,-1.4865,-1.4857,-1.4897,-1.4901,-1.4904,-1.4916,-1.4921,-1.4866,-1.4866,-1.4866,-1.4866,0,-1.4417,-1.4455,-1.4479,-1.4531,-1.456,-1.4596,-1.4629,-1.4654,-1.4669,-1.4693,-1.4741,-1.4777,-1.4821,-1.4835,-1.485,-1.4891,-1.4889,-1.4891,-1.4886,-1.4907,-1.4919,-1.4924,-1.4866,-1.4866,-1.4866,-1.4866,0,0,-1.4433,-1.4501,-1.4509,-1.4533,-1.4585,-1.4615,-1.4652,-1.4696,-1.4717,-1.4754,-1.4785,-1.4839,-1.4842,-1.4868,-1.4886,-1.4908,-1.4935,-1.4908,-1.491,-1.4911,-1.4982,-1.4979,-1.4984,-1.4942,-1.4943,-1.4944,-1.4978,0,-1.4464,-1.4533,-1.456,-1.4615,-1.4651,-1.4671,-1.4704,-1.4738,-1.4762,-1.4795,-1.4821,-1.4858,-1.486,-1.4876,-1.4899,-1.4927,-1.4949,-1.4925,-1.4971,-1.4972,-1.4959,-1.4991,-1.4988,-1.5018,-1.4983,-1.4984,-1.4985,0,-1.451,-1.4548,-1.4607,-1.4654,-1.467,-1.4699,-1.4742,-1.4774,-1.4813,-1.4829,-1.4858,-1.4875,-1.4914,-1.4907,-1.4962,-1.4944,-1.4965,-1.4981,-1.4983,-1.4988,-1.4979,-1.4995,-1.5029,-1.5033,-1.4993,-1.4992,-1.4991,0,-1.4515,-1.4581,-1.4625,-1.4645,-1.4701,-1.4721,-1.4745,-1.4784,-1.4809,-1.4846,-1.4862,-1.4903,-1.4925,-1.4956,-1.4983,-1.4976,-1.5035,-1.503,-1.5048,-1.5048,-1.5059,-1.5058,-1.5096,-1.5073,-1.5073,-1.5073,-1.5073,0,-1.4547,-1.4582,-1.4628,-1.4655,-1.4695,-1.4725,-1.4763,-1.4789,-1.4823,-1.4855,-1.4875,-1.4904,-1.4939,-1.4972,-1.4994,-1.5035,-1.5045,-1.5058,-1.5063,-1.5056,-1.5054,-1.5069,-1.5067,-1.5075,-1.5074,-1.5074,-1.5074,0,-1.4559,-1.4591,-1.464,-1.469,-1.4703,-1.473,-1.4772,-1.4798,-1.4823,-1.4863,-1.4874,-1.4913,-1.4953,-1.4984,-1.5036,-1.505,-1.5094,-1.51,-1.5081,-1.5083,-1.5099,-1.5097,-1.5147,-1.5155,-1.5128,-1.5129,-1.5129,0,-1.4577,-1.4604,-1.4657,-1.468,-1.4704,-1.4741,-1.4767,-1.4798,-1.4824,-1.4871,-1.4892,-1.4934,-1.4969,-1.5032,-1.5065,-1.5105,-1.5111,-1.5126,-1.5117,-1.5109,-1.511,-1.5108,-1.5111,-1.5127,-1.5127,-1.5127,-1.5127,0,-1.4605,-1.462,-1.4656,-1.4699,-1.4729,-1.4764,-1.4799,-1.4817,-1.4854,-1.4882,-1.4924,-1.4951,-1.5005,-1.5046,-1.5089,-1.5114,-1.5126,-1.513,-1.5136,-1.5128,-1.5116,-1.5122,-1.5083,-1.5128,-1.5128,-1.5128,-1.5128,-1.5128,-1.462,-1.4645,-1.4686,-1.4727,-1.4757,-1.4789,-1.4816,-1.4845,-1.4881,-1.4928,-1.4944,-1.4987,-1.5026,-1.5085,-1.511,-1.5144,-1.5144,-1.5153,-1.5155,-1.5156,-1.5155,-1.5111,-1.5152,-1.5152,-1.5152,-1.5152,-1.5152,0,-1.4648,-1.4676,-1.4713,-1.4762,-1.4793,-1.4804,-1.4843,-1.4869,-1.4907,-1.4942,-1.4977,-1.5025,-1.5065,-1.5101,-1.5143,-1.5163,-1.517,-1.5172,-1.5171,-1.5176,-1.5153,-1.5143,-1.5166,-1.5166,-1.5166,-1.5166,-1.5166,-1.5166,-1.4667,-1.471,-1.473,-1.4788,-1.4816,-1.4859,-1.488,-1.491,-1.4939,-1.4992,-1.5026,-1.5049,-1.5085,-1.5129,-1.5166,-1.5176,-1.519,-1.5191,-1.5202,-1.518,-1.5178,-1.5176,-1.5167,-1.5194,-1.5194,-1.5222,-1.5222,-1.5222]}]]